Qianfan 05-09

operational
NORAD ID: 63167 Int'l Des: 2025-046 Owner: YUANX Country: CN Constellation: qianfan
LEOCIRCULARPOLAR

About Qianfan 05-09

Description loading...

Live Position

Loading 3D Globe...

Upcoming Passes

Altitude History

Altitude vs Time

uPlot chart will show altitude changes over time

Two-Line Element Set

1 63167U 25046J 25311.30885076 .00000125 00000-0 17504-3 0 9997
2 63167 88.9759 323.5431 0013470 217.3375 142.6841 13.50992758 42703
Epoch: Nov 7, 2025 • Age: 8 hours

Current Status

Altitude 1080.7 km
Velocity 7.32 km/s
Sub-Earth Point -55.41°S, 137.36°W
Launch Date Mar 11, 2025
Age 0.6 years
Type internet

Technical Details

Classification Payload
Mass 267.00 kg
Dry Mass 267.00 kg
Total Mass 267.00 kg
Length 0.30 m
Diameter 3.00 m
Span 10.00 m
Shape Box+pan
Manufacturer GESIH
Bus Type Qianfan
Phase Status In Orbit
Owner/State YUANX/CN

Large Constellations

Loading constellations...